Regional Weather Roundup
Issued by NWS

Home | Current Version | Previous Version | Text Only | Print | Product List | Glossary On
Versions: 1 2 3 4 5 6 7 8 9 10 11 12 13 14 15 16 17 18 19 20 21 22 23 24 25 26 27 28 29 30 31 32 33 34 35 36 37 38 39 40 41 42 43 44 45 46 47 48 49 50
000
ASUS43 KMKX 311611
RWRWI

WISCONSIN REGIONAL WEATHER ROUNDUP
NATIONAL WEATHER SERVICE MILWAUKEE/SULLIVAN WI
1100 AM CDT TUE MAY 31 2016

NOTE: "FAIR" INDICATES FEW OR NO CLOUDS BELOW 12,000 FEET WITH NO
SIGNIFICANT WEATHER AND/OR OBSTRUCTIONS TO VISIBILITY.

WIZ001-002-006>008-014>016-023>028-311700-
NORTHWEST WISCONSIN

CITY           SKY/WX    TMP DP  RH WIND       PRES   REMARKS
SUPERIOR ARPT  LGT RAIN  42  40  96 NE20G30   29.97F
ASHLAND        CLOUDY    52  46  80 CALM      29.99R
HAYWARD        LGT RAIN  62  58  86 SE8       29.94F
SIREN          CLOUDY    65  62  89 S14       29.89S
CUMBERLAND     LGT RAIN  61  59  94 SE9       29.92S
RICE LAKE      CLOUDY    65  61  87 E10       29.93F
CHETEK         CLOUDY    67  63  86 SE8       29.92F
LADYSMITH      CLOUDY    68  57  66 SE10      29.97F
EAU CLAIRE     CLOUDY    72  60  66 SE10      29.90F
MENOMONIE      PTSUNNY   71  70  97 SE9       29.90F
NEW RICHMOND   CLOUDY    66  59  78 SE7       29.90S
OSCEOLA        CLOUDY    68  62  80 S12       29.91F
$$

WIZ003>005-009-010-017-018-311700-
NORTH CENTRAL WISCONSIN

CITY           SKY/WX    TMP DP  RH WIND       PRES   REMARKS
MANITOWISH WTR NOT AVBL
ARBOR VITAE    CLOUDY    60  49  68 SE14G20   30.02F
WOODRUFF       CLOUDY    60  49  68 SE14G20   30.02F
RHINELANDER    CLOUDY    61  49  64 E14       30.04S
EAGLE RIVER      N/A     58  46  62 SE10      30.04F
LAND O LAKES   CLOUDY    57  45  65 SE9       30.06S
PHILLIPS       PTSUNNY   62  54  74 SE8       29.99S
TOMAHAWK       CLOUDY    61  51  69 E6        30.02F
MEDFORD        CLOUDY    65  57  73 SE8       29.98F
MERRILL        CLOUDY    63  54  72 E10       30.01F
$$

WIZ029-030-035-036-043>047-311700-
CENTRAL WISCONSIN

CITY           SKY/WX    TMP DP  RH WIND       PRES   REMARKS
WAUSAU         PTSUNNY   68  53  58 E14       29.99F
MOSINEE        SUNNY     66  55  68 E12       30.01F
MARSHFIELD     CLOUDY    71  58  63 SE15G21   29.97F
STEVENS POINT  MOSUNNY   66  55  67 E13       30.01S
WAUPACA        SUNNY     71  55  57 E10       30.02F
WAUTOMA        MOSUNNY  N/A N/A N/A E9        30.01S
WISC RAPIDS    MOSUNNY   75  55  49 SE13G18   29.99S
CAMP DOUGLAS   CLOUDY    77  64  65 S17       29.95F
$$

WIZ011>013-019>022-031-037>040-048>050-311700-
NORTHEAST WISCONSIN

CITY           SKY/WX    TMP DP  RH WIND       PRES   REMARKS
ANTIGO         MOSUNNY   62  52  69 E13       30.05S
SHAWANO        SUNNY     66  53  62 NE10      30.06S
OCONTO         CLOUDY    59  48  66 E9        30.07F
STURGEON BAY   NOT AVBL
GREEN BAY      SUNNY     66  54  65 E12       30.05S
MANITOWOC      MOSUNNY   61  51  70 E9        30.06S
APPLETON       PTSUNNY   66  52  59 E7        30.02F
CLINTONVILLE   SUNNY     64  50  59 E9        30.04S
OSHKOSH        SUNNY     67  57  70 E9        30.02S
$$

WIZ032>034-041-042-053>061-311700-
SOUTHWEST WISCONSIN

CITY           SKY/WX    TMP DP  RH WIND       PRES   REMARKS
LA CROSSE      CLOUDY    77  62  59 S13       29.91F
SPARTA         CLOUDY    75  62  64 SE8       29.95S
VIROQUA        CLOUDY    74  63  69 SE14      29.95F
BOSCOBEL       NOT AVBL
PRAIRIE DU CHI SUNNY     74  63  68 CALM      29.93S
PLATTEVILLE    CLOUDY    67  64  91 S5        29.98R
$$

WIZ056-057-062-063-064-067-068-311700-
SOUTH CENTRAL WISCONSIN

CITY           SKY/WX    TMP DP  RH WIND       PRES   REMARKS
REEDSBURG      MOSUNNY   76  60  57 S6        29.95F
BARABOO/DELLS  LGT RAIN  75  51  42 SE12      29.96F
LONE ROCK      CLOUDY    79  59  50 SE13      29.94F HX  80
MINERAL POINT  HVY RAIN  70  63  78 S14G28    30.00R
MADISON        PTSUNNY   76  51  41 SE15      29.96S
MIDDLETON      PTSUNNY   78  51  38 S15       29.97S
WATERTOWN      SUNNY     76  59  56 E12       29.98F
MONROE         TSTM      70  61  73 S12       29.98R
JANESVILLE     MOSUNNY   81  50  34 SE16      29.95F HX  80
$$

WIZ051-052-058>065-066-070>072-311700-
SOUTHEAST WISCONSIN

CITY           SKY/WX    TMP DP  RH WIND       PRES   REMARKS
MILWAUKEE      MOSUNNY   64  56  75 NE8       30.03S
WAUKESHA       MOSUNNY   70  52  52 E9        30.03S
MILWAUKEE/TIMM SUNNY     68  52  56 E9        30.03
RACINE         SUNNY     71  55  56 NE8       30.04S
BURLINGTON     SUNNY     76  49  38 SE12      30.00S
KENOSHA        SUNNY     71  55  56 E13       30.01F
FOND DU LAC    SUNNY     74  57  55 SE12      30.02R
SHEBOYGAN      SUNNY     62  54  74 E9        30.05R
WEST BEND      SUNNY     68  55  64 E7        30.03S
JUNEAU         MOSUNNY   72  54  52 E16       30.01S
$$

LSZ147-162-311700-
LAKE SUPERIOR

STATION/POSITION TIME  TEMP    WIND        PRES    WAVE
                       AIR SEA DIR/SP/G            HT/PER
                 (UTC) (F)     (DEG/KT/KT) (MB)    (FT/S)
W MID LAKE BUOY  1550   40 38   60/ 16/ 17 1018.6R   3/ 5
DEVILS ISLAND    1600   42      70/ 24/ 26 1016.4F
SAXON HARBOR     1540   57      50/  7/ 10 1014.6S
$$

LMZ867-665-643>646-311700-
LAKE MICHIGAN

STATION/POSITION TIME  TEMP    WIND        PRES    WAVE
                       AIR SEA DIR/SP/G            HT/PER
                 (UTC) (F)     (DEG/KT/KT) (MB)    (FT/S)
CHAMBERS ISLAND  1500   54      60/  9/ 15 1019.0R
N MID LAKE BUOY  1550   47 47   40/  6/  8 1019.3R   1/ 4
NORTHPORT PIER   1500   51      60/  9/ 10 1019.3
SISTER BAY       1535   59     120/ 10/ 13   N/A
ALGOMA LAKESHORE 1517           50/ 16/ 20   N/A
KEWAUNEE LAKESHO 1500   52      20/  7/ 12 1017.3F
SHEBOYGAN LAKESH 1600   49     350/ 13/ 14 1018.1R
PORT WASHINGTON  1540   55      30/  6/  8 1017.9F
S MID LAKE BUOY  1550   56 54   80/  8/  8 1016.1F   0
KENOSHA   LAKESH 1600   57      20/  8/  8 1016.3F
$$

TC  - TEMPERATURE IN CELSIUS
VSB - VISIBILITY IN STATUTE MILES
WCI - WIND CHILL INDEX
HX  - HEAT INDEX





USA.gov is the U.S. government's official web portal to all federal, state and local government web resources and services.